Carlsbad, NM

11:46 PM MST on February 13, 2016 (GMT -0700)
Cavern City

Weather History for KCNM - September, 2013

Change the Weather History Date:

Tuesday, September 10, 2013

  Actual Average Record
Temperature  
Mean Temperature 74 °F -  
Max Temperature 82 °F 87 °F 102 °F (2000)
Min Temperature 66 °F 62 °F 50 °F (2004)
Cooling Degree Days 9    
Growing Degree Days 24 (Base 50)    
Moisture  
Dew Point 63 °F    
Average Humidity 71    
Maximum Humidity 87    
Minimum Humidity 47    
Precipitation  
Precipitation 0.36 in - - ()
Sea Level Pressure  
Sea Level Pressure 29.88 in    
Wind  
Wind Speed 6 mph (SE)    
Max Wind Speed 14 mph    
Max Gust Speed 21 mph    
Visibility 10 miles    
Events Rain    
Averages and records for this station are not official NWS values.
T = Trace of Precipitation, MM = Missing Value Source: NWS Daily Summary

Daily Weather History Graph

Daily Weather History Graph

Search for Another Location

Airport or City:

Trip Planner

Search our weather history database for the weather conditions in past years. The results will help you decide how hot, cold, wet, or windy it might be!

Date:

Astronomy

Sep. 10, 2013 Rise Set
Actual Time 6:37 AM MDT 7:09 PM MDT
Civil Twilight 6:13 AM MDT 7:33 PM MDT
Nautical Twilight 5:44 AM MDT 8:02 PM MDT
Astronomical Twilight 5:14 AM MDT 8:32 PM MDT
Moon 11:45 AM MDT (9/10) 10:35 PM MDT (9/10)
Length of Visible Light 13h 20m
Length of Day
12h 31m
Waxing Crescent, 29% of the Moon is Illuminated
Sep 10
Waxing Crescent
Sep 12
First Quarter
Sep 19
Full
Sep 26
Last Quarter
Oct 4
New

Hourly Weather History & Observations

Time (MDT) Temp. Heat Index Dew Point Humidity Pressure Visibility Wind Dir Wind Speed Gust Speed Precip Events Conditions
12:53 AM 68.0 °F - 55.9 °F 65% 29.82 in 10.0 mi South 5.8 mph - N/A   Clear
1:53 AM 66.9 °F - 55.9 °F 68% 29.83 in 10.0 mi SSW 4.6 mph - N/A   Clear
2:53 AM 69.1 °F - 57.9 °F 68% 29.82 in 10.0 mi SSE 6.9 mph - N/A   Clear
3:53 AM 69.1 °F - 59.0 °F 70% 29.82 in 10.0 mi South 5.8 mph - N/A   Clear
4:53 AM 68.0 °F - 59.0 °F 73% 29.83 in 10.0 mi SSW 3.5 mph - N/A   Clear
5:53 AM 66.9 °F - 59.0 °F 76% 29.84 in 10.0 mi South 4.6 mph - N/A   Mostly Cloudy
6:53 AM 66.0 °F - 59.0 °F 78% 29.86 in 10.0 mi Calm Calm - N/A   Clear
7:23 AM 68.0 °F - 59.0 °F 73% 30.03 in 10.0 mi SE 3.5 mph - N/A   Mostly Cloudy
7:53 AM 71.1 °F - 62.1 °F 73% 29.89 in 10.0 mi ESE 4.6 mph - N/A   Overcast
8:53 AM 72.0 °F - 63.0 °F 73% 29.90 in 10.0 mi SE 8.1 mph - N/A   Overcast
9:53 AM 73.9 °F - 63.0 °F 68% 29.92 in 10.0 mi SSE 9.2 mph - N/A   Overcast
10:45 AM 78.8 °F - 62.6 °F 57% 30.08 in 10.0 mi SSE 10.4 mph - N/A   Overcast
10:53 AM 78.1 °F - 63.0 °F 60% 29.92 in 10.0 mi SE 6.9 mph - N/A   Mostly Cloudy
11:53 AM 82.0 °F 83.0 °F 62.1 °F 51% 29.90 in 10.0 mi ESE 11.5 mph 20.7 mph N/A   Mostly Cloudy
12:53 PM 82.9 °F 83.3 °F 61.0 °F 47% 29.88 in 10.0 mi ESE 13.8 mph 20.7 mph N/A   Scattered Clouds
1:53 PM 82.0 °F 83.0 °F 62.1 °F 51% 29.86 in 10.0 mi ESE 10.4 mph - N/A   Mostly Cloudy
2:53 PM 73.9 °F - 66.9 °F 79% 29.86 in 10.0 mi WNW 4.6 mph - 0.18 in Rain Light Rain
3:53 PM 75.9 °F - 68.0 °F 76% 29.83 in 10.0 mi NNW 6.9 mph - 0.00 in   Overcast
4:53 PM 78.1 °F - 66.0 °F 66% 29.83 in 10.0 mi North 3.5 mph - 0.00 in Rain Light Rain
5:53 PM 78.1 °F - 66.0 °F 66% 29.83 in 10.0 mi NNW 5.8 mph - 0.00 in   Scattered Clouds
6:53 PM 73.9 °F - 66.9 °F 79% 29.87 in 10.0 mi Calm Calm - 0.00 in   Overcast
7:53 PM 72.0 °F - 66.0 °F 81% 29.86 in 10.0 mi ENE 4.6 mph - 0.00 in   Overcast
8:53 PM 72.0 °F - 66.9 °F 84% 29.89 in 10.0 mi NE 3.5 mph - N/A   Overcast
9:53 PM 71.1 °F - 66.9 °F 87% 29.90 in 10.0 mi South 6.9 mph - 0.18 in Rain Light Rain
10:53 PM 72.0 °F - 66.9 °F 84% 29.91 in 10.0 mi Calm Calm - 0.00 in   Overcast
11:53 PM 73.0 °F - 66.9 °F 81% 29.89 in 10.0 mi Calm Calm - N/A   Overcast